FLOCK 2K-08

Last updated on Wed Feb 14 2018 16:20:52 GMT+0000 (Coordinated Universal Time)

1 42863U 17042AQ 18045.19017626 .00007338 00000-0 21357-3 0 9999 2 42863 96.9927 307.9915 0010237 189.3471 170.7584 15.35642536 32756
UTC large
Height (km)
Speed (km/s)
/
Latitude / Longitude
Inclination (degrees)
Orbital Period (minutes)
Azimuth
Elevation
Range (km)
Doppler Factor

Next 0 passes for location: London (51.5072 / 0.1276)

Sorry there are no passes over London.
FLOCK 2K-08